Wayne, NE

3:03 AM CDT on September 26, 2017 (GMT -0500)
Wayne Municipal

Weather History for KLCG - April, 2013

Change the Weather History Date:

Friday, April 12, 2013

  Actual Average (KOFK) Record (KOFK)
Temperature  
Mean Temperature 32 °F -  
Max Temperature 34 °F 58 °F 85 °F (1908)
Min Temperature 28 °F 37 °F 13 °F (1957)
Degree Days  
Heating Degree Days 34    
Moisture  
Dew Point 27 °F    
Average Humidity 83    
Maximum Humidity 96    
Minimum Humidity 70    
Precipitation  
Precipitation 0.00 in - - ()
Sea Level Pressure  
Sea Level Pressure 29.87 in    
Wind  
Wind Speed 15 mph (NW)    
Max Wind Speed 20 mph    
Max Gust Speed 29 mph    
Visibility 10 miles    
Events      
Averages and records for this station are not official NWS values.
T = Trace of Precipitation, MM = Missing Value Source: NWS Daily Summary

Daily Weather History Graph

Daily Weather History Graph

Search for Another Location

Airport or City:

Trip Planner

Search our weather history database for the weather conditions in past years. The results will help you decide how hot, cold, wet, or windy it might be!

Date:

Astronomy

Apr. 12, 2013 Rise Set
Actual Time 6:51 AM CDT 8:06 PM CDT
Civil Twilight 6:22 AM CDT 8:35 PM CDT
Nautical Twilight 5:48 AM CDT 9:10 PM CDT
Astronomical Twilight 5:11 AM CDT 9:46 PM CDT
Moon 7:59 AM CDT (4/12) 10:41 PM CDT (4/12)
Length of Visible Light 14h 12m
Length of Day
13h 14m
Waxing Crescent, 5% of the Moon is Illuminated
Apr 12
Waxing Crescent
Apr 18
First Quarter
Apr 25
Full
May 2
Last Quarter
May 9
New

Hourly Weather History & Observations

Time (CDT) Temp. Windchill Dew Point Humidity Pressure Visibility Wind Dir Wind Speed Gust Speed Precip Events Conditions
12:15 AM 31.1 °F 20.1 °F 28.4 °F 90% 29.73 in 10.0 mi NNW 16.1 mph 23.0 mph N/A   Overcast
12:35 AM 31.3 °F 20.7 °F 28.8 °F 90% 29.73 in 10.0 mi NW 15.0 mph - N/A   Overcast
12:55 AM 31.5 °F 20.5 °F 29.1 °F 91% 29.73 in 10.0 mi NNW 16.1 mph - N/A   Overcast
1:15 AM 31.6 °F 21.2 °F 29.5 °F 92% 29.73 in 10.0 mi NW 15.0 mph - N/A   Overcast
1:35 AM 31.6 °F 20.4 °F 29.8 °F 93% 29.74 in 7.0 mi NW 17.3 mph 21.9 mph N/A   Overcast
1:55 AM 31.6 °F 20.7 °F 30.2 °F 94% 29.74 in 7.0 mi NW 16.1 mph 21.9 mph N/A   Overcast
2:15 AM 32.0 °F 20.8 °F 30.2 °F 93% 29.74 in 10.0 mi NW 17.3 mph 24.2 mph N/A   Overcast
2:35 AM 31.8 °F 21.4 °F 30.2 °F 94% 29.74 in 7.0 mi NW 15.0 mph 26.5 mph N/A   Overcast
2:55 AM 32.0 °F 21.6 °F 30.6 °F 94% 29.74 in 7.0 mi NW 15.0 mph 26.5 mph N/A   Overcast
3:15 AM 32.0 °F 20.8 °F 30.7 °F 95% 29.74 in 5.0 mi NW 17.3 mph 21.9 mph N/A   Overcast
3:35 AM 31.8 °F 21.0 °F 30.7 °F 96% 29.74 in 5.0 mi NW 16.1 mph 20.7 mph N/A   Overcast
3:55 AM 32.0 °F 21.6 °F 30.9 °F 96% 29.74 in 5.0 mi NW 15.0 mph - N/A   Overcast
4:15 AM 32.0 °F 22.1 °F 30.9 °F 96% 29.75 in 5.0 mi NNW 13.8 mph - N/A   Overcast
4:35 AM 32.0 °F 21.2 °F 30.9 °F 96% 29.76 in 7.0 mi NNW 16.1 mph 20.7 mph N/A   Overcast
4:55 AM 31.8 °F 21.0 °F 30.6 °F 95% 29.76 in 7.0 mi NW 16.1 mph - N/A   Overcast
5:15 AM 31.5 °F 21.8 °F 30.2 °F 95% 29.77 in 10.0 mi NW 12.7 mph - N/A   Overcast
5:35 AM 31.1 °F 20.1 °F 30.2 °F 96% 29.77 in 10.0 mi NW 16.1 mph 25.3 mph N/A   Overcast
5:55 AM 31.1 °F 20.1 °F 30.0 °F 96% 29.77 in 10.0 mi NW 16.1 mph 23.0 mph N/A   Overcast
6:15 AM 30.9 °F 19.4 °F 29.7 °F 95% 29.78 in 10.0 mi NW 17.3 mph 23.0 mph N/A   Overcast
6:35 AM 30.9 °F 20.7 °F 29.7 °F 95% 29.78 in 10.0 mi NW 13.8 mph 24.2 mph N/A   Overcast
6:55 AM 30.7 °F 19.6 °F 29.3 °F 94% 29.79 in 10.0 mi NW 16.1 mph 25.3 mph N/A   Overcast
7:15 AM 30.6 °F 19.0 °F 29.3 °F 95% 29.80 in 10.0 mi NW 17.3 mph 25.3 mph N/A   Overcast
7:35 AM 30.7 °F 18.5 °F 28.9 °F 93% 29.81 in 10.0 mi NW 19.6 mph 28.8 mph N/A   Overcast
7:55 AM 30.6 °F 19.4 °F 28.4 °F 92% 29.81 in 10.0 mi NW 16.1 mph 20.7 mph N/A   Overcast
8:15 AM 30.6 °F 19.4 °F 28.2 °F 91% 29.82 in 10.0 mi NW 16.1 mph 25.3 mph N/A   Overcast
8:35 AM 30.7 °F 19.2 °F 28.0 °F 90% 29.83 in 10.0 mi NW 17.3 mph 23.0 mph N/A   Overcast
8:55 AM 30.7 °F 19.6 °F 28.0 °F 90% 29.84 in 10.0 mi NW 16.1 mph - N/A   Overcast
9:15 AM 30.9 °F 19.8 °F 27.7 °F 88% 29.85 in 10.0 mi NW 16.1 mph 23.0 mph N/A   Overcast
9:55 AM 31.3 °F 20.3 °F 27.5 °F 86% 29.86 in 10.0 mi NW 16.1 mph 20.7 mph N/A   Overcast
10:15 AM 31.6 °F 21.2 °F 27.3 °F 84% 29.86 in 10.0 mi NW 15.0 mph 19.6 mph N/A   Overcast
10:35 AM 32.0 °F 22.5 °F 27.5 °F 83% 29.87 in 10.0 mi WNW 12.7 mph - N/A   Overcast
10:55 AM 32.0 °F 22.1 °F 27.1 °F 82% 29.88 in 10.0 mi NW 13.8 mph - N/A   Overcast
11:15 AM 32.0 °F 21.2 °F 26.4 °F 80% 29.88 in 10.0 mi NW 16.1 mph 25.3 mph N/A   Overcast
11:35 AM 32.0 °F 22.5 °F 26.4 °F 80% 29.89 in 10.0 mi NW 12.7 mph 21.9 mph N/A   Overcast
11:55 AM 32.2 °F 21.4 °F 25.7 °F 77% 29.89 in 10.0 mi NW 16.1 mph 21.9 mph N/A   Overcast
12:15 PM 32.9 °F 22.0 °F 25.9 °F 75% 29.89 in 10.0 mi NW 17.3 mph 21.9 mph N/A   Overcast
12:35 PM 33.1 °F 21.9 °F 25.7 °F 74% 29.89 in 10.0 mi NW 18.4 mph 21.9 mph N/A   Overcast
12:55 PM 32.9 °F 22.8 °F 26.1 °F 76% 29.89 in 10.0 mi NW 15.0 mph 21.9 mph N/A   Overcast
1:15 PM 33.3 °F 22.8 °F 25.9 °F 74% 29.89 in 10.0 mi NW 16.1 mph - N/A   Overcast
1:35 PM 33.8 °F 23.9 °F 26.1 °F 73% 29.89 in 10.0 mi NW 15.0 mph 21.9 mph N/A   Overcast
1:55 PM 33.8 °F 23.5 °F 26.2 °F 74% 29.90 in 10.0 mi NW 16.1 mph 19.6 mph N/A   Overcast
2:15 PM 34.0 °F 25.0 °F 26.1 °F 73% 29.90 in 10.0 mi NW 12.7 mph 23.0 mph N/A   Overcast
2:35 PM 33.8 °F 24.3 °F 26.6 °F 75% 29.91 in 10.0 mi NW 13.8 mph - N/A   Overcast
2:55 PM 34.0 °F 24.2 °F 26.6 °F 74% 29.91 in 10.0 mi NW 15.0 mph 19.6 mph N/A   Overcast
3:15 PM 34.3 °F 24.6 °F 25.9 °F 71% 29.92 in 10.0 mi NW 15.0 mph 25.3 mph N/A   Overcast
3:35 PM 34.5 °F 24.1 °F 25.5 °F 70% 29.93 in 10.0 mi WNW 17.3 mph 24.2 mph N/A   Overcast
3:55 PM 34.3 °F 24.6 °F 25.9 °F 71% 29.93 in 10.0 mi NW 15.0 mph - N/A   Overcast
4:15 PM 34.5 °F 24.8 °F 25.9 °F 71% 29.93 in 10.0 mi NW 15.0 mph 24.2 mph N/A   Overcast
4:35 PM 34.2 °F 24.0 °F 26.2 °F 73% 29.93 in 10.0 mi NW 16.1 mph 23.0 mph N/A   Overcast
4:55 PM 33.8 °F 23.9 °F 26.4 °F 74% 29.93 in 10.0 mi NW 15.0 mph - N/A   Overcast
5:15 PM 34.0 °F 24.6 °F 26.8 °F 75% 29.93 in 10.0 mi NW 13.8 mph 20.7 mph N/A   Overcast
5:35 PM 33.6 °F 24.1 °F 26.6 °F 75% 29.93 in 10.0 mi NNW 13.8 mph 20.7 mph N/A   Overcast
5:55 PM 33.4 °F 23.9 °F 27.1 °F 78% 29.94 in 10.0 mi NW 13.8 mph - N/A   Overcast
6:15 PM 33.1 °F 23.4 °F 27.1 °F 79% 29.94 in 10.0 mi NW 13.8 mph - N/A   Overcast
6:35 PM 32.9 °F 23.7 °F 26.8 °F 78% 29.95 in 10.0 mi NNW 12.7 mph - N/A   Overcast
6:55 PM 32.9 °F 24.7 °F 27.1 °F 79% 29.95 in 10.0 mi NW 10.4 mph - N/A   Overcast
7:15 PM 32.5 °F 24.8 °F 27.0 °F 80% 29.96 in 10.0 mi NW 9.2 mph - N/A   Overcast
7:35 PM 32.5 °F 24.2 °F 26.8 °F 79% 29.96 in 10.0 mi NNW 10.4 mph - N/A   Overcast
7:55 PM 32.2 °F 24.4 °F 26.6 °F 80% 29.96 in 10.0 mi NW 9.2 mph - N/A   Overcast
8:15 PM 32.2 °F 23.8 °F 26.4 °F 79% 29.96 in 10.0 mi NW 10.4 mph - N/A   Overcast
8:35 PM 32.0 °F 23.0 °F 26.1 °F 79% 29.96 in 10.0 mi NW 11.5 mph - N/A   Overcast
8:55 PM 32.0 °F 23.0 °F 26.2 °F 79% 29.97 in 10.0 mi NW 11.5 mph - N/A   Overcast
9:15 PM 32.0 °F 23.6 °F 26.1 °F 79% 29.97 in 10.0 mi NW 10.4 mph - N/A   Overcast
9:35 PM 32.0 °F 23.0 °F 25.9 °F 78% 29.98 in 10.0 mi NW 11.5 mph - N/A   Overcast
9:55 PM 32.0 °F 24.2 °F 25.3 °F 76% 29.98 in 10.0 mi NW 9.2 mph - N/A   Overcast
10:15 PM 32.0 °F 23.0 °F 25.3 °F 76% 29.98 in 10.0 mi NW 11.5 mph 16.1 mph N/A   Overcast
10:35 PM 31.8 °F 23.3 °F 25.2 °F 76% 29.98 in 10.0 mi NW 10.4 mph - N/A   Mostly Cloudy
10:55 PM 30.9 °F 23.5 °F 23.7 °F 75% 29.99 in 10.0 mi WNW 8.1 mph - N/A   Scattered Clouds
11:15 PM 30.0 °F 22.4 °F 23.9 °F 78% 29.99 in 10.0 mi WNW 8.1 mph - N/A   Clear
11:35 PM 29.1 °F 23.0 °F 23.9 °F 81% 30.00 in 10.0 mi WNW 5.8 mph - N/A   Clear
11:55 PM 28.8 °F 21.7 °F 23.5 °F 81% 30.00 in 10.0 mi West 6.9 mph - N/A   Clear